{"data":{"norad_id":61255,"intl_designator":"2024-175N","name":"STARLINK-11313 [DTC]","alt_names":[],"object_type":"PAYLOAD","status":"ACTIVE","operator":null,"country":"US","launch_date":"2024-09-25","launch_site_code":"AFWTR","launch_vehicle":null,"mission":null,"orbit_class":"UNKNOWN","rcs_meters":null,"size_class":null,"mass_kg":null,"dimensions":null,"purposes":["comms"],"wikipedia_slug":null,"has_3d_model":false,"image_url":null,"decayed_at":null,"tle_current":{"epoch":"2026-05-25T01:57:49.353408Z","epoch_age_seconds":72002,"freshness":"FRESH","line1":"1 61255U 24175N   26145.08182122  .00000343  00000+0  76894-5 0  9998","line2":"2 61255  53.1594  39.7533 0000870 123.7644 236.3457 15.69708392 95363","mean_motion":15.69708392,"eccentricity":8.7e-5,"inclination_deg":53.1594,"raan_deg":39.7533,"arg_perigee_deg":123.7644,"mean_anomaly_deg":236.3457,"bstar":7.6894e-6,"rev_number":9536,"period_min":91.736784191188,"perigee_km":359.14515735758,"apogee_km":360.31754645081,"semimajor_km":6737.8683519042,"source":"CELESTRAK","updated_at":"2026-05-25T13:38:19.366205Z"}}}